Weather reports worldwide

Advertisment
Karesuando, Sweden (2080): temperature & dewpoint: 17.10.2019 21:00:00 - 23.10.2019 21:00:00 (CEST)Karesuando, Sweden (2080): wind speed & gusts: 17.10.2019 21:00:00 - 23.10.2019 21:00:00 (CEST)Karesuando, Sweden (2080): wind direction: 17.10.2019 21:00:00 - 23.10.2019 21:00:00 (CEST)Karesuando, Sweden (2080): reduced air pressure: 17.10.2019 21:00:00 - 23.10.2019 21:00:00 (CEST)Karesuando, Sweden (2080): visibility: 17.10.2019 21:00:00 - 23.10.2019 21:00:00 (CEST)Karesuando, Sweden (2080): precipitation: 17.10.2019 21:00:00 - 23.10.2019 21:00:00 (CEST)
Date & Time tt [°C] td [°C] ff [km/h] ff [kn] fx [km/h] fx [kn] dd ppp [hPa] vv [km] rr [mm]
23.10.2019 21:00:00 - - - - - - - - - -
23.10.2019 20:00:00 -1,6 -4,3 21 12 36 19 WSW 1003,0 12 0,0
23.10.2019 19:00:00 -4,0 -5,5 8 5 24 13 SW 1002,6 12 0,0
23.10.2019 18:00:00 -3,5 -4,9 14 8 36 20 WSW 1001,7 13 0,0
23.10.2019 17:00:00 -4,6 -5,7 8 4 14 7 SW 1001,5 10 0,0
23.10.2019 16:00:00 -3,3 -4,3 4 2 10 5 S 1001,3 10 0,0
23.10.2019 15:00:00 -2,2 -3,9 5 3 20 11 SSW 1001,0 12 0,0
23.10.2019 14:00:00 -1,5 -3,4 9 5 17 9 SW 1000,6 12 0,0
23.10.2019 13:00:00 -0,9 -2,9 4 2 12 6 SSW 1000,3 16 0,0
23.10.2019 12:00:00 -1,9 -2,7 5 3 8 5 SE 999,7 6 0,1
23.10.2019 11:00:00 -2,3 -3,3 0 0 3 2 N 999,5 2,6 1,0
23.10.2019 10:00:00 -2,6 -3,4 0 0 11 6 N 999,3 1,3 0,7
23.10.2019 09:00:00 -2,8 -3,8 4 2 8 4 WSW 998,9 9 0,0
23.10.2019 08:00:00 -3,0 -4,1 3 2 4 2 S 997,8 9 0,0
23.10.2019 07:00:00 -2,6 -4,0 2 1 15 8 WNW 996,9 14 0,0
23.10.2019 06:00:00 -3,1 -4,2 0 0 9 5 N 996,2 11 0,0
23.10.2019 05:00:00 -3,1 -4,4 5 3 15 8 NNW 995,5 13 0,0
23.10.2019 04:00:00 -3,0 -4,4 8 4 25 14 NNE 993,9 12 0,0
23.10.2019 03:00:00 -2,7 -3,7 19 10 29 16 N 992,0 14 0,0
23.10.2019 02:00:00 -1,8 -2,5 11 6 20 11 NNW 990,2 15 0,0
23.10.2019 01:00:00 -0,9 -1,6 12 7 20 11 NNW 987,6 14 0,0
23.10.2019 00:00:00 -0,5 -0,8 10 6 15 8 NW 985,4 11 0,0
22.10.2019 23:00:00 -0,6 -0,9 4 2 8 4 NNW 983,3 6 0,1
22.10.2019 22:00:00 -0,2 -0,5 5 3 9 5 ENE 981,6 6 0,0
22.10.2019 21:00:00 -0,2 -0,5 5 3 12 6 E 980,5 3,2 0,1
22.10.2019 20:00:00 -0,4 -0,7 7 4 13 7 E 979,7 9 0,0
22.10.2019 19:00:00 -0,5 -0,9 8 4 15 8 ENE 979,7 10 0,2
22.10.2019 18:00:00 -0,6 -1,2 8 4 13 7 ESE 980,0 15 0,0
22.10.2019 17:00:00 -0,7 -1,3 7 4 19 10 SE 980,5 12 0,0
22.10.2019 16:00:00 -0,2 -0,9 8 5 17 9 S 981,7 7 0,0
22.10.2019 15:00:00 -1,0 -1,7 8 5 26 14 SE 983,1 3,3 0,2
22.10.2019 14:00:00 -1,6 -2,3 14 8 30 16 SE 984,6 1,5 1,5
22.10.2019 13:00:00 -2,2 -2,8 16 9 29 16 ESE 985,8 0,4 1,1
22.10.2019 12:00:00 -3,2 -3,9 12 7 26 14 ESE 988,1 0,7 0,0
22.10.2019 11:00:00 -3,8 -4,9 11 6 27 14 SE 990,5 13 0,0
22.10.2019 10:00:00 -4,2 -5,9 12 6 23 12 SE 991,9 10 0,0
22.10.2019 09:00:00 -5,7 -6,6 6 3 23 12 ESE 993,8 15 0,0
22.10.2019 08:00:00 -6,4 -7,3 11 6 22 12 ESE 995,6 14 0,0
22.10.2019 07:00:00 -7,9 -8,8 11 6 23 13 E 997,4 14 0,0
22.10.2019 06:00:00 -8,3 -9,4 16 9 24 13 E 998,9 9 0,0
22.10.2019 05:00:00 -8,4 -9,5 10 6 21 11 E 1000,6 19 0,0
22.10.2019 04:00:00 -8,6 -9,7 12 7 21 12 E 1002,4 16 0,0
22.10.2019 03:00:00 -8,9 -10,1 13 7 20 11 E 1003,5 12 0,0
22.10.2019 02:00:00 -9,3 -10,6 10 5 19 11 E 1004,9 14 0,0
22.10.2019 01:00:00 -9,6 -10,9 12 6 19 10 E 1005,6 16 0,0
22.10.2019 00:00:00 -9,4 -10,7 9 5 17 9 E 1006,5 11 0,0
21.10.2019 23:00:00 -9,6 -10,8 10 5 15 8 E 1007,1 14 0,0
21.10.2019 22:00:00 -10,1 -11,3 7 4 - - E 1008,1 11 0,0
21.10.2019 21:00:00 -9,9 -11,1 11 6 16 9 E 1008,7 13 0,0
21.10.2019 20:00:00 -9,6 -10,8 10 5 16 9 E 1009,3 12 0,0
21.10.2019 19:00:00 -9,5 -10,8 12 7 16 9 E 1009,6 12 0,0
21.10.2019 18:00:00 -9,1 -10,6 10 6 15 8 E 1010,2 18 0,0
21.10.2019 17:00:00 - - - - - - - - - -
21.10.2019 16:00:00 -7,1 -9,0 11 6 17 9 E 1010,6 16 0,0
21.10.2019 15:00:00 -6,1 -8,7 10 5 16 9 E 1010,6 11 0,0
21.10.2019 14:00:00 -5,5 -8,1 9 5 13 7 E 1010,5 14 0,0
21.10.2019 13:00:00 -5,4 -8,1 7 4 10 5 E 1010,9 13 0,0
21.10.2019 12:00:00 -2,6 -6,6 3 2 10 6 SSW 1010,7 16 0,0
21.10.2019 11:00:00 -4,0 -7,6 8 4 15 8 SW 1010,7 13 0,0
21.10.2019 10:00:00 -8,8 -11,2 0 0 9 5 N 1011,3 16 0,0
21.10.2019 09:00:00 -10,7 -12,4 0 0 11 6 N 1011,2 14 0,0
21.10.2019 08:00:00 -11,5 -13,2 5 3 12 6 WSW 1011,2 18 0,0
21.10.2019 07:00:00 -11,1 -12,7 8 5 11 6 SSW 1011,3 15 0,0
21.10.2019 06:00:00 -11,1 -13,3 4 2 10 6 SSE 1011,5 11 0,0
21.10.2019 05:00:00 -10,4 -12,6 6 3 12 6 SW 1011,4 16 0,0
21.10.2019 04:00:00 -10,1 -12,3 8 4 15 8 S 1011,7 14 0,0
21.10.2019 03:00:00 -10,5 -12,2 8 5 19 11 SSW 1012,0 16 0,0
21.10.2019 02:00:00 -10,0 -11,9 5 3 13 7 SSW 1012,5 11 0,0
21.10.2019 01:00:00 -9,5 -11,4 5 3 10 6 SSW 1012,8 15 0,0
21.10.2019 00:00:00 -9,5 -11,5 5 3 10 6 SSW 1013,1 16 0,0
20.10.2019 23:00:00 -8,4 -10,9 7 4 20 11 SSW 1013,5 15 0,0
20.10.2019 22:00:00 -7,6 -10,4 11 6 19 10 SSW 1014,0 14 0,0
20.10.2019 21:00:00 -7,5 -10,4 11 6 21 11 SSW 1014,6 16 0,0
20.10.2019 20:00:00 -7,9 -10,4 8 4 12 7 S 1015,0 14 0,0
20.10.2019 19:00:00 -7,5 -10,2 4 2 26 14 WSW 1015,4 15 0,0
20.10.2019 18:00:00 -7,4 -10,1 12 6 22 12 S 1015,9 15 0,0
20.10.2019 17:00:00 -7,0 -9,9 9 5 20 11 S 1016,8 14 0,0
20.10.2019 16:00:00 -6,2 -9,7 6 3 18 10 SSE 1017,3 13 0,0
20.10.2019 15:00:00 -5,3 -9,4 10 5 19 10 S 1017,7 13 0,0
20.10.2019 14:00:00 -5,0 -8,6 9 5 19 10 S 1018,5 16 0,0
20.10.2019 13:00:00 -7,3 -9,7 6 3 8 5 ESE 1019,3 15 0,0
20.10.2019 12:00:00 -10,1 -12,3 3 2 6 3 ENE 1020,1 12 0,0
20.10.2019 11:00:00 -11,9 -14,1 0 0 - - N 1020,6 13 0,0
20.10.2019 10:00:00 -13,8 -15,9 0 0 4 2 N 1021,0 10 0,2
20.10.2019 09:00:00 -17,6 -19,4 0 0 4 2 N 1021,3 14 0,0
20.10.2019 08:00:00 -18,2 -20,1 3 2 6 4 NW 1021,6 15 0,0
20.10.2019 07:00:00 -17,8 -19,7 4 2 6 3 NW 1021,5 15 0,0
20.10.2019 06:00:00 -17,7 -19,6 6 3 7 4 NW 1021,6 15 0,0
20.10.2019 05:00:00 -17,3 -19,1 4 2 9 5 NW 1021,4 14 0,0
20.10.2019 04:00:00 -16,6 -18,1 4 2 7 4 W 1021,1 15 0,0
20.10.2019 03:00:00 -14,9 -16,6 5 3 12 6 SSW 1020,8 13 0,0
20.10.2019 02:00:00 -15,1 -17,1 5 3 10 6 SW 1020,4 14 0,0
20.10.2019 01:00:00 -14,9 -16,6 5 3 11 6 SW 1019,9 13 0,0
20.10.2019 00:00:00 -14,5 -16,2 7 4 13 7 SSW 1019,5 14 0,0
19.10.2019 23:00:00 -14,4 -16,2 9 5 - - SW 1018,9 14 0,0
19.10.2019 22:00:00 -13,1 -14,8 8 4 12 7 WSW 1018,3 10 0,0
19.10.2019 21:00:00 -11,1 -12,6 4 2 10 5 WNW 1017,6 11 0,0
19.10.2019 20:00:00 -10,0 -11,2 5 3 12 6 NW 1017,1 14 0,0
19.10.2019 19:00:00 -9,2 -10,7 10 5 - - WNW 1016,6 12 0,0
19.10.2019 18:00:00 -8,1 -9,6 10 5 14 8 NW 1016,0 15 0,0
19.10.2019 17:00:00 -6,6 -8,5 10 5 14 8 NNW 1015,3 11 0,0
19.10.2019 16:00:00 -4,6 -7,5 10 5 18 10 N 1014,6 16 0,0
19.10.2019 15:00:00 -3,4 -7,0 11 6 18 10 NNW 1014,2 13 0,0
19.10.2019 14:00:00 -2,8 -7,0 11 6 23 12 NNW 1013,7 11 0,0
19.10.2019 13:00:00 -2,7 -6,9 10 5 22 12 NNW 1013,3 12 0,0
19.10.2019 12:00:00 -3,6 -7,6 8 5 17 9 NW 1013,0 12 0,0
19.10.2019 11:00:00 -4,8 -7,9 10 6 18 10 NNW 1012,8 13 0,0
19.10.2019 10:00:00 -6,0 -8,0 6 3 17 9 NW 1012,4 8 0,0
19.10.2019 09:00:00 -7,7 -8,8 3 2 14 8 WNW 1012,1 15 0,0
19.10.2019 08:00:00 -6,1 -7,0 9 5 16 8 NNW 1011,4 11 0,0
19.10.2019 07:00:00 -3,3 -4,9 10 5 16 8 NNW 1010,8 13 0,0
19.10.2019 06:00:00 -3,5 -4,8 10 5 16 8 N 1010,1 13 0,0
19.10.2019 05:00:00 -4,4 -5,6 8 4 14 7 NNW 1009,8 11 0,0
19.10.2019 04:00:00 -5,0 -6,4 11 6 20 11 NNW 1009,3 10 0,0
19.10.2019 03:00:00 -4,8 -6,3 10 5 19 10 NNW 1009,1 17 0,0
19.10.2019 02:00:00 -4,7 -6,2 10 5 14 7 NW 1008,9 11 0,0
19.10.2019 01:00:00 -3,8 -5,3 10 5 14 7 NW 1008,6 10 0,0
19.10.2019 00:00:00 -4,5 -5,5 7 4 9 5 NW 1008,4 13 0,0
18.10.2019 23:00:00 -4,1 -5,1 6 4 9 5 NNW 1008,2 13 0,0
18.10.2019 22:00:00 -3,7 -4,5 5 3 7 4 W 1007,8 11 0,0
18.10.2019 21:00:00 -3,2 -4,0 2 1 5 3 NNW 1007,4 10 0,0
18.10.2019 20:00:00 -2,9 -3,6 3 2 7 4 W 1007,4 13 0,0
18.10.2019 19:00:00 -3,0 -3,8 4 2 5 3 W 1007,4 12 0,0
18.10.2019 18:00:00 -2,1 -2,9 3 2 5 3 WSW 1007,1 14 0,0
18.10.2019 17:00:00 -1,6 -2,9 5 3 6 4 WSW 1007,2 12 0,0
18.10.2019 16:00:00 -0,9 -2,6 4 2 8 5 SW 1007,1 16 0,0
18.10.2019 15:00:00 -0,5 -2,6 6 3 10 5 WSW 1007,1 8 0,0
18.10.2019 14:00:00 -0,4 -2,5 4 2 13 7 SW 1007,1 12 0,0
18.10.2019 13:00:00 -0,6 -2,7 8 5 17 9 SW 1007,3 13 0,0
18.10.2019 12:00:00 -0,7 -2,4 10 6 21 11 SW 1007,4 17 0,0
18.10.2019 11:00:00 -1,1 -2,7 9 5 14 8 SW 1007,5 14 0,0
18.10.2019 10:00:00 -1,2 -2,6 8 4 19 10 SW 1007,6 17 0,0
18.10.2019 09:00:00 -1,6 -2,9 8 5 20 11 SSW 1007,4 17 0,0
18.10.2019 08:00:00 -1,8 -3,1 12 6 23 12 SSW 1007,3 13 0,0
18.10.2019 07:00:00 -2,0 -3,1 6 3 19 10 S 1007,6 15 0,0
18.10.2019 06:00:00 -1,9 -3,2 9 5 19 11 S 1008,0 13 0,1
18.10.2019 05:00:00 -2,2 -3,3 11 6 22 12 S 1008,3 4,3 0,2
18.10.2019 04:00:00 -2,4 -3,5 10 5 23 12 S 1009,2 8 0,2
18.10.2019 03:00:00 -2,6 -3,4 8 5 24 13 SSE 1009,8 2,5 0,2
18.10.2019 02:00:00 -2,7 -3,4 11 6 22 12 S 1010,5 8 0,0
18.10.2019 01:00:00 -2,8 -3,3 11 6 21 11 S 1011,2 15 0,0
18.10.2019 00:00:00 -2,9 -3,4 9 5 20 11 S 1012,0 13 0,0
17.10.2019 23:00:00 -3,2 -3,7 7 4 22 12 S 1012,8 16 0,0
17.10.2019 22:00:00 -3,4 -3,9 10 6 25 13 S 1013,2 13 0,0
17.10.2019 21:00:00 -3,6 -4,1 11 6 27 15 S 1013,6 15 0,0

tt = temperature
td = dewpoint
ff = wind speed
fx = gusts
dd = wind direction
ppp = reduced air pressure
vv = visibility
rr = precipitation

Next stations